Weather Roundup
Issued by NWS

Home | Current Version | Previous Version | Text Only | Print | Product List | Glossary On
Versions: 1 2 3 4 5 6 7 8 9 10 11 12 13 14 15 16 17 18 19 20 21 22 23 24 25 26 27 28 29 30 31 32 33 34 35 36 37 38 39 40 41 42 43 44 45 46 47 48 49 50
815
NZUS93 KARX 190010
HRRWXR

CURRENT HOURLY OBSERVATIONS ACROSS
MUCH OF THE UPPER MISSISSIPPI VALLEY
NATIONAL WEATHER SERVICE LA CROSSE WI
700 PM CDT WED OCT 18 2017


...SOUTHEAST MINNESOTA...


CITY           SKY/WX    TMP DP  RH WIND       PRES   REMARKS
ROCHESTER      CLOUDY    58  46  64 W10       29.95R
ROCHESTER/MAYO FAIR      66  41  40 W10       29.94R
WINONA         PTCLDY    70  46  43 W6        29.91R
AUSTIN         PTCLDY    63  41  45 CALM      29.96R
ALBERT LEA     NOT AVBL
DODGE CENTER   CLOUDY    61  39  44 W7        29.96R
PRESTON        CLOUDY    60  45  59 W8        29.96R
OWATONNA       PTCLDY    59  36  41 W7        29.97R
FARIBAULT      CLOUDY    63  30  29 W8        29.96R
$$

...ELSEWHERE IN MINNESOTA...


CITY           SKY/WX    TMP DP  RH WIND       PRES   REMARKS
MINNEAPOLIS    CLOUDY    62  17  17 W10G25    29.93R
INTNL FALLS    CLEAR     53  14  21 W13G21    29.70R
DULUTH         CLEAR     55  16  21 W15       29.79R
RED WING       CLOUDY    63  27  25 W7        29.89R
REDWOOD FALLS  CLEAR     56  25  30 NW9       30.00R
MANKATO        CLOUDY    60  27  28 NW7       29.98R
WORTHINGTON    CLEAR     57  35  43 NW3       30.03R
FAIRMONT       CLEAR     58  36  43 NW6       30.00R
$$

...SOUTHWEST WISCONSIN...


CITY           SKY/WX    TMP DP  RH WIND       PRES   REMARKS
LA CROSSE      CLEAR     68  49  50 W8        29.90R
PRAIRIE DU CHI CLEAR     67  45  45 CALM      29.95R
BOSCOBEL       CLEAR     66  46  48 SW5       29.95R
LONE ROCK      CLEAR     66  48  52 SW6       29.94R
PLATTEVILLE    CLEAR     61  48  62 SW6       29.98R
FORT MC COY    CLEAR     65  48  53 SW5       29.90S
CAMP DOUGLAS   PTCLDY    68  48  49 SW9       29.89R
MAUSTON-NEW LI CLEAR     67  47  50 SW6       29.91R
VIROQUA        FAIR      64  48  57 SW8       29.94R
WIS DELLS      CLEAR     64  44  49 SW9G16    29.93R
$$

...ELSEWHERE IN WISCONSIN...


CITY           SKY/WX    TMP DP  RH WIND       PRES   REMARKS
MILWAUKEE      CLOUDY    67  43  41 S17G23    29.96F
MADISON        MOCLDY    66  43  43 SW9       29.95R
GREEN BAY      PTCLDY    65  48  54 S13       29.87R
EAU CLAIRE     CLEAR     62  43  49 SW10      29.85R
BLACK RVR FLS  FAIR      66  46  47 SW6       29.88R
MEDFORD        CLEAR     61  47  58 SW9       29.85R
WAUSAU         CLEAR     65  47  52 SW12      29.82R
WIS RAPIDS     CLEAR     64  48  56 SW9       29.88R
MARSHFIELD     CLOUDY    63  47  55 SW12      29.85R
RICE LAKE      CLEAR     60  35  40 W10       29.87R
$$

...NORTHEAST IOWA...


CITY           SKY/WX    TMP DP  RH WIND       PRES   REMARKS
WATERLOO       CLEAR     61  47  59 SW7       29.96R
DUBUQUE        CLEAR     61  47  59 SW12      29.97R
DECORAH        CLEAR     66  48  52 VRB3      29.94R
MASON CITY     CLEAR     59  43  55 NW6       29.99R
CHARLES CITY   CLEAR     61  46  59 W3        29.97R
OELWEIN        CLEAR     63  48  59 SW8       29.97R
$$

...ELSEWHERE IN IOWA...


CITY           SKY/WX    TMP DP  RH WIND       PRES   REMARKS
DES MOINES     PTCLDY    67  48  50 SW8       29.98R
IOWA CITY      CLEAR     66  48  52 S8        29.99R
FORT DODGE     CLEAR     65  45  48 CALM      29.99R
MARSHALLTOWN   CLEAR     66  49  54 SW8       29.96R
CEDAR RAPIDS   CLEAR     63  47  55 S8        29.97R
$$

...NORTHERN ILLINOIS...


CITY           SKY/WX    TMP DP  RH WIND       PRES   REMARKS
CHICAGO-OHARE  PTCLDY    66  41  40 S12       30.03R
CHICAGO-MIDWAY PTCLDY    66  41  40 SW13G18   30.04R
MOLINE         CLEAR     65  43  44 S7        29.99R
ROCKFORD       MOCLDY    60  44  55 S13       30.00F
PEORIA         CLEAR     63  44  50 S10       30.05R
$$

NOTE: "FAIR" INDICATES FEW OR NO CLOUDS BELOW 12,000 FEET WITH NO
SIGNIFICANT WEATHER AND/OR OBSTRUCTIONS TO VISIBILITY. WIND
SPEEDS ARE IN MILES-PER-HOUR.




USA.gov is the U.S. government's official web portal to all federal, state and local government web resources and services.